Location: ???????
(56.2167°N, 38.0500°E)
Time: 03:11:35
(UTC+00:00)

SL-16 R/B - Pass Details

Date: 19 May 2025
Orbit: 985 x 1006 km, 99.7° (Epoch: 14 June)

Event Time Altitude Azimuth Distance (km) Brightness Sun altitude
Rises 23:01:03 0° 127° (SE) 3,689 5.4 -11.1°
Reaches altitude 10° 23:03:40 10° 119° (ESE) 2,745 4.8 -11.0°
Maximum altitude 23:09:13 37° 55° (NE) 1,495 4.1 -10.6°
Drops below altitude 10° 23:14:49 10° 350° (N) 2,766 5.8 -10.3°
Sets 23:17:27 0° 343° (NNW) 3,722 6.3 -10.1°
